Time,TemperatureF,DewpointF,PressureIn,WindDirection,WindDirectionDegrees,WindSpeedMPH,WindSpeedGustMPH,Humidity,HourlyPrecipIn,Conditions,Clouds,dailyrainin,SoftwareType,DateUTC
2013-07-14 00:00:00,71.9,71.5,30.29,ENE,67,0.0,0.0,98,-99.99,,,-99.99,tws,2013-07-14 04:00:00,
2013-07-14 00:01:00,71.9,71.5,30.30,East,90,0.0,0.0,98,-99.99,,,-99.99,tws,2013-07-14 04:01:00,
2013-07-14 00:02:00,72.1,71.2,30.29,East,90,0.0,0.0,97,-99.99,,,-99.99,tws,2013-07-14 04:02:00,
2013-07-14 00:03:00,71.7,71.4,30.30,East,90,0.0,0.0,98,-99.99,,,-99.99,tws,2013-07-14 04:03:00,
2013-07-14 00:05:00,72.0,71.5,30.30,ESE,112,0.0,0.0,98,-99.99,,,-99.99,tws,2013-07-14 04:05:00,
2013-07-14 00:08:00,72.3,71.7,30.29,ESE,112,0.0,0.0,98,-99.99,,,-99.99,tws,2013-07-14 04:08:00,
2013-07-14 00:13:00,72.2,70.9,30.29,ESE,112,0.0,0.0,95,-99.99,,,-99.99,tws,2013-07-14 04:13:00,
2013-07-14 00:18:00,71.3,70.8,30.29,East,90,0.0,0.0,98,-99.99,,,-99.99,tws,2013-07-14 04:18:00,
2013-07-14 00:24:00,71.2,70.9,30.29,East,90,0.9,0.9,99,-99.99,,,-99.99,tws,2013-07-14 04:24:00,
2013-07-14 00:29:00,71.5,71.4,30.29,ENE,67,0.0,0.0,99,-99.99,,,-99.99,tws,2013-07-14 04:29:00,
2013-07-14 00:34:00,71.5,71.2,30.29,East,90,0.0,0.0,98,-99.99,,,-99.99,tws,2013-07-14 04:34:00,
2013-07-14 00:39:00,71.3,71.1,30.29,East,90,0.0,0.0,99,-99.99,,,-99.99,tws,2013-07-14 04:39:00,
2013-07-14 00:44:00,70.7,70.5,30.29,ENE,67,0.1,0.1,99,-99.99,,,-99.99,tws,2013-07-14 04:44:00,
2013-07-14 00:49:00,70.7,70.3,30.29,ENE,67,0.0,0.0,98,-99.99,,,-99.99,tws,2013-07-14 04:49:00,
2013-07-14 00:54:00,71.7,71.4,30.30,East,90,0.0,0.0,98,-99.99,,,-99.99,tws,2013-07-14 04:54:00,
2013-07-14 01:00:00,71.6,71.2,30.30,SE,135,0.0,0.0,98,-99.99,,,-99.99,tws,2013-07-14 05:00:00,
2013-07-14 01:05:00,72.2,71.8,30.30,SSE,157,0.0,0.0,98,-99.99,,,-99.99,tws,2013-07-14 05:05:00,
2013-07-14 01:10:00,72.0,71.5,30.30,SSE,157,0.0,0.0,98,-99.99,,,-99.99,tws,2013-07-14 05:10:00,
2013-07-14 01:15:00,71.7,70.9,30.29,East,90,0.0,0.0,97,-99.99,,,-99.99,tws,2013-07-14 05:15:00,
2013-07-14 01:20:00,71.9,71.1,30.29,SE,135,0.0,0.0,97,-99.99,,,-99.99,tws,2013-07-14 05:20:00,
2013-07-14 01:25:00,71.5,70.9,30.30,SSE,157,0.0,0.0,98,-99.99,,,-99.99,tws,2013-07-14 05:25:00,
2013-07-14 01:31:00,71.2,70.6,30.29,SSE,157,3.9,3.9,98,-99.99,,,-99.99,tws,2013-07-14 05:31:00,
2013-07-14 01:36:00,71.0,70.7,30.29,SSE,157,2.0,2.0,99,-99.99,,,-99.99,tws,2013-07-14 05:36:00,
2013-07-14 01:41:00,70.7,70.6,30.29,South,180,0.1,0.1,99,-99.99,,,-99.99,tws,2013-07-14 05:41:00,
2013-07-14 01:46:00,70.5,70.4,30.29,SSW,202,0.0,0.0,99,-99.99,,,-99.99,tws,2013-07-14 05:46:00,
2013-07-14 01:52:00,71.0,70.8,30.29,SSE,157,0.0,0.0,99,-99.99,,,-99.99,tws,2013-07-14 05:52:00,
2013-07-14 01:57:00,71.3,70.9,30.29,SSE,157,0.0,0.0,98,-99.99,,,-99.99,tws,2013-07-14 05:57:00,
2013-07-14 02:02:00,71.4,71.0,30.29,South,180,0.0,0.0,98,-99.99,,,-99.99,tws,2013-07-14 06:02:00,
2013-07-14 02:07:00,71.2,70.8,30.29,SW,225,0.0,0.0,98,-99.99,,,-99.99,tws,2013-07-14 06:07:00,
2013-07-14 02:12:00,70.4,70.3,30.29,West,270,0.0,0.0,99,-99.99,,,-99.99,tws,2013-07-14 06:12:00,
2013-07-14 02:17:00,70.1,70.2,30.29,WSW,247,0.0,0.0,100,-99.99,,,-99.99,tws,2013-07-14 06:17:00,
2013-07-14 02:22:00,70.2,70.2,30.29,WSW,247,0.0,0.0,100,-99.99,,,-99.99,tws,2013-07-14 06:22:00,
2013-07-14 02:27:00,69.9,70.1,30.29,West,270,0.0,0.0,100,-99.99,,,-99.99,tws,2013-07-14 06:27:00,
2013-07-14 02:32:00,70.4,70.5,30.29,WSW,247,0.0,0.0,100,-99.99,,,-99.99,tws,2013-07-14 06:32:00,
2013-07-14 02:37:00,70.7,70.7,30.29,WSW,247,0.0,0.0,100,-99.99,,,-99.99,tws,2013-07-14 06:37:00,
2013-07-14 02:42:00,70.5,70.5,30.29,WSW,247,0.9,0.9,100,-99.99,,,-99.99,tws,2013-07-14 06:42:00,
2013-07-14 02:47:00,70.1,70.2,30.29,SW,225,4.7,4.7,100,-99.99,,,-99.99,tws,2013-07-14 06:47:00,
2013-07-14 02:52:00,70.2,70.4,30.29,WSW,247,2.3,2.3,100,-99.99,,,-99.99,tws,2013-07-14 06:52:00,
2013-07-14 02:57:00,69.8,70.1,30.29,WSW,247,1.2,1.2,100,-99.99,,,-99.99,tws,2013-07-14 06:57:00,
2013-07-14 03:02:00,69.6,70.0,30.29,West,270,0.0,0.0,101,-99.99,,,-99.99,tws,2013-07-14 07:02:00,
2013-07-14 03:07:00,69.7,69.8,30.29,WSW,247,0.0,0.0,100,-99.99,,,-99.99,tws,2013-07-14 07:07:00,
2013-07-14 03:12:00,70.3,70.6,30.29,WSW,247,0.0,0.0,101,-99.99,,,-99.99,tws,2013-07-14 07:12:00,
2013-07-14 03:17:00,70.3,70.5,30.29,West,270,2.9,2.9,100,-99.99,,,-99.99,tws,2013-07-14 07:17:00,
2013-07-14 03:22:00,69.9,70.2,30.29,WSW,247,3.3,3.3,101,-99.99,,,-99.99,tws,2013-07-14 07:22:00,
2013-07-14 03:27:00,69.8,70.1,30.29,SSW,202,3.6,3.6,100,-99.99,,,-99.99,tws,2013-07-14 07:27:00,
2013-07-14 03:32:00,69.6,69.8,30.29,SSW,202,2.3,2.3,100,-99.99,,,-99.99,tws,2013-07-14 07:32:00,
2013-07-14 03:37:00,69.8,70.1,30.29,SSW,202,2.2,2.2,100,-99.99,,,-99.99,tws,2013-07-14 07:37:00,
2013-07-14 03:42:00,69.8,70.2,30.29,SSW,202,0.1,0.1,101,-99.99,,,-99.99,tws,2013-07-14 07:42:00,
2013-07-14 03:47:00,70.1,70.4,30.29,SSW,202,1.8,1.8,101,-99.99,,,-99.99,tws,2013-07-14 07:47:00,
2013-07-14 03:52:00,69.9,70.4,30.29,SSE,157,6.4,6.4,101,-99.99,,,-99.99,tws,2013-07-14 07:52:00,
2013-07-14 03:57:00,69.9,70.2,30.29,SSE,157,5.6,5.6,100,-99.99,,,-99.99,tws,2013-07-14 07:57:00,
2013-07-14 04:02:00,70.2,70.4,30.29,South,180,1.5,1.5,100,-99.99,,,-99.99,tws,2013-07-14 08:02:00,
2013-07-14 04:07:00,70.4,70.4,30.29,SE,135,1.6,1.6,100,-99.99,,,-99.99,tws,2013-07-14 08:07:00,
2013-07-14 04:12:00,70.4,70.4,30.29,SSE,157,0.0,0.0,99,-99.99,,,-99.99,tws,2013-07-14 08:12:00,
2013-07-14 04:17:00,70.5,70.3,30.29,SSE,157,0.0,0.0,99,-99.99,,,-99.99,tws,2013-07-14 08:17:00,
2013-07-14 04:22:00,70.1,70.2,30.29,SE,135,7.5,7.5,100,-99.99,,,-99.99,tws,2013-07-14 08:22:00,
2013-07-14 04:27:00,69.9,70.0,30.29,SE,135,7.7,7.7,100,-99.99,,,-99.99,tws,2013-07-14 08:27:00,
2013-07-14 04:32:00,69.9,70.1,30.29,SSE,157,9.7,9.7,100,-99.99,,,-99.99,tws,2013-07-14 08:32:00,
2013-07-14 04:37:00,69.7,69.9,30.29,SSE,157,6.5,6.5,100,-99.99,,,-99.99,tws,2013-07-14 08:37:00,
2013-07-14 04:42:00,69.8,70.1,30.29,SSE,157,7.5,7.5,100,-99.99,,,-99.99,tws,2013-07-14 08:42:00,
2013-07-14 04:47:00,69.6,70.0,30.28,ESE,112,6.0,6.0,101,-99.99,,,-99.99,tws,2013-07-14 08:47:00,
2013-07-14 04:52:00,69.7,70.0,30.29,SE,135,4.8,4.8,101,-99.99,,,-99.99,tws,2013-07-14 08:52:00,
2013-07-14 04:57:00,69.8,70.1,30.29,SE,135,6.6,6.6,100,-99.99,,,-99.99,tws,2013-07-14 08:57:00,
2013-07-14 05:03:00,69.6,69.9,30.29,SE,135,6.9,6.9,101,-99.99,,,-99.99,tws,2013-07-14 09:03:00,
2013-07-14 05:08:00,69.7,70.0,30.29,SSE,157,6.4,6.4,101,-99.99,,,-99.99,tws,2013-07-14 09:08:00,
2013-07-14 05:13:00,69.6,70.0,30.29,SSE,157,6.8,6.8,101,-99.99,,,-99.99,tws,2013-07-14 09:13:00,
2013-07-14 05:18:00,69.7,70.0,30.29,SE,135,6.7,6.7,101,-99.99,,,-99.99,tws,2013-07-14 09:18:00,
2013-07-14 05:23:00,69.7,70.0,30.29,SE,135,6.5,6.5,101,-99.99,,,-99.99,tws,2013-07-14 09:23:00,
2013-07-14 05:28:00,69.7,70.0,30.29,SE,135,6.0,6.0,100,-99.99,,,-99.99,tws,2013-07-14 09:28:00,
2013-07-14 05:33:00,69.7,70.0,30.29,SSE,157,6.1,6.1,100,-99.99,,,-99.99,tws,2013-07-14 09:33:00,
2013-07-14 05:38:00,69.6,69.8,30.29,SSE,157,6.5,6.5,100,-99.99,,,-99.99,tws,2013-07-14 09:38:00,
2013-07-14 05:43:00,69.6,69.7,30.29,South,180,8.3,8.3,100,-99.99,,,-99.99,tws,2013-07-14 09:43:00,
2013-07-14 05:48:00,69.6,69.9,30.29,SSE,157,8.3,8.3,101,-99.99,,,-99.99,tws,2013-07-14 09:48:00,
2013-07-14 05:53:00,69.4,69.8,30.29,SSE,157,9.0,9.0,101,-99.99,,,-99.99,tws,2013-07-14 09:53:00,
2013-07-14 05:58:00,69.3,69.7,30.29,SSW,202,8.4,8.4,101,-99.99,,,-99.99,tws,2013-07-14 09:58:00,
2013-07-14 06:03:00,69.5,69.9,30.29,South,180,9.1,9.1,101,-99.99,,,-99.99,tws,2013-07-14 10:03:00,
2013-07-14 06:08:00,69.7,69.7,30.30,SSE,157,8.2,8.2,100,-99.99,,,-99.99,tws,2013-07-14 10:08:00,
2013-07-14 06:13:00,70.1,70.2,30.30,SE,135,2.4,2.4,100,-99.99,,,-99.99,tws,2013-07-14 10:13:00,
2013-07-14 06:18:00,70.3,70.3,30.31,SE,135,2.1,2.1,100,-99.99,,,-99.99,tws,2013-07-14 10:18:00,
2013-07-14 06:23:00,70.8,70.7,30.31,SE,135,0.0,0.0,99,-99.99,,,-99.99,tws,2013-07-14 10:23:00,
2013-07-14 06:29:00,71.3,71.0,30.31,SSE,157,0.0,0.0,99,-99.99,,,-99.99,tws,2013-07-14 10:29:00,
2013-07-14 06:34:00,71.2,70.9,30.32,South,180,0.0,0.0,99,-99.99,,,-99.99,tws,2013-07-14 10:34:00,
2013-07-14 06:39:00,71.1,70.7,30.32,WSW,247,0.1,0.1,98,-99.99,,,-99.99,tws,2013-07-14 10:39:00,
2013-07-14 06:44:00,70.8,70.9,30.32,SSW,202,5.4,5.4,100,-99.99,,,-99.99,tws,2013-07-14 10:44:00,
2013-07-14 06:49:00,70.7,70.8,30.32,WSW,247,6.1,6.1,100,-99.99,,,-99.99,tws,2013-07-14 10:49:00,
2013-07-14 06:54:00,70.7,70.6,30.32,WSW,247,6.2,6.2,99,-99.99,,,-99.99,tws,2013-07-14 10:54:00,
2013-07-14 06:59:00,70.5,70.7,30.32,West,270,7.6,7.6,100,-99.99,,,-99.99,tws,2013-07-14 10:59:00,
2013-07-14 07:04:00,70.6,70.7,30.32,WSW,247,2.8,2.8,100,-99.99,,,-99.99,tws,2013-07-14 11:04:00,
2013-07-14 07:09:00,71.2,71.1,30.32,SW,225,1.5,1.5,99,-99.99,,,-99.99,tws,2013-07-14 11:09:00,
2013-07-14 07:14:00,71.1,70.5,30.32,SW,225,3.6,3.6,98,-99.99,,,-99.99,tws,2013-07-14 11:14:00,
2013-07-14 07:19:00,71.6,71.2,30.32,SW,225,0.0,0.0,98,-99.99,,,-99.99,tws,2013-07-14 11:19:00,
2013-07-14 07:25:00,71.9,71.5,30.32,West,270,3.8,3.8,98,-99.99,,,-99.99,tws,2013-07-14 11:25:00,
2013-07-14 07:30:00,71.4,70.9,30.32,NNW,337,3.8,3.8,98,-99.99,,,-99.99,tws,2013-07-14 11:30:00,
2013-07-14 07:35:00,71.7,71.4,30.32,NNW,337,0.0,0.0,98,-99.99,,,-99.99,tws,2013-07-14 11:35:00,
2013-07-14 07:40:00,72.1,71.3,30.32,NNW,337,0.0,0.0,97,-99.99,,,-99.99,tws,2013-07-14 11:40:00,
2013-07-14 07:45:00,73.3,72.1,30.32,NNE,22,0.0,0.0,96,-99.99,,,-99.99,tws,2013-07-14 11:45:00,
2013-07-14 07:50:00,73.9,71.7,30.33,WSW,247,0.0,0.0,92,-99.99,,,-99.99,tws,2013-07-14 11:50:00,
2013-07-14 07:55:00,73.3,72.0,30.33,NW,315,0.0,0.0,95,-99.99,,,-99.99,tws,2013-07-14 11:55:00,
2013-07-14 08:00:00,72.6,71.7,30.33,NW,315,0.0,0.0,96,-99.99,,,-99.99,tws,2013-07-14 12:00:00,
2013-07-14 08:05:00,74.7,72.6,30.33,SE,135,2.7,2.7,93,-99.99,,,-99.99,tws,2013-07-14 12:05:00,
2013-07-14 08:10:00,75.3,72.6,30.33,East,90,0.0,0.0,91,-99.99,,,-99.99,tws,2013-07-14 12:10:00,
2013-07-14 08:15:00,75.6,72.4,30.33,South,180,0.0,0.0,89,-99.99,,,-99.99,tws,2013-07-14 12:15:00,
2013-07-14 08:20:00,76.8,73.4,30.33,South,180,0.5,0.5,88,-99.99,,,-99.99,tws,2013-07-14 12:20:00,
2013-07-14 08:25:00,75.6,72.2,30.33,West,270,0.0,0.0,89,-99.99,,,-99.99,tws,2013-07-14 12:25:00,
2013-07-14 08:31:00,76.6,73.3,30.33,SSW,202,0.0,0.0,89,-99.99,,,-99.99,tws,2013-07-14 12:31:00,
2013-07-14 08:36:00,77.6,73.3,30.33,South,180,0.8,0.8,86,-99.99,,,-99.99,tws,2013-07-14 12:36:00,
2013-07-14 08:41:00,77.4,73.7,30.33,ESE,112,0.1,0.1,88,-99.99,,,-99.99,tws,2013-07-14 12:41:00,
2013-07-14 08:46:00,77.8,73.9,30.34,WNW,292,0.0,0.0,87,-99.99,,,-99.99,tws,2013-07-14 12:46:00,
2013-07-14 08:51:00,76.5,72.5,30.34,West,270,4.6,4.6,87,-99.99,,,-99.99,tws,2013-07-14 12:51:00,
2013-07-14 08:56:00,76.6,72.8,30.34,NW,315,0.0,0.0,87,-99.99,,,-99.99,tws,2013-07-14 12:56:00,
2013-07-14 09:02:00,78.0,73.4,30.34,North,0,0.2,0.2,85,-99.99,,,-99.99,tws,2013-07-14 13:02:00,
2013-07-14 09:07:00,77.0,73.2,30.33,NNE,22,0.8,0.8,87,-99.99,,,-99.99,tws,2013-07-14 13:07:00,
2013-07-14 09:12:00,76.7,73.1,30.33,NW,315,0.4,0.4,88,-99.99,,,-99.99,tws,2013-07-14 13:12:00,
2013-07-14 09:17:00,78.9,74.4,30.33,NNE,22,3.9,3.9,85,-99.99,,,-99.99,tws,2013-07-14 13:17:00,
2013-07-14 09:22:00,79.3,74.4,30.33,West,270,0.2,0.2,84,-99.99,,,-99.99,tws,2013-07-14 13:22:00,
2013-07-14 09:27:00,78.4,73.5,30.33,NE,45,4.0,4.0,84,-99.99,,,-99.99,tws,2013-07-14 13:27:00,
2013-07-14 09:32:00,78.9,73.6,30.33,ENE,67,0.7,0.7,83,-99.99,,,-99.99,tws,2013-07-14 13:32:00,
2013-07-14 09:38:00,79.7,74.4,30.33,NE,45,1.3,1.3,83,-99.99,,,-99.99,tws,2013-07-14 13:38:00,
2013-07-14 09:43:00,80.2,74.5,30.32,NE,45,0.2,0.2,82,-99.99,,,-99.99,tws,2013-07-14 13:43:00,
2013-07-14 09:48:00,80.1,72.8,30.33,NE,45,6.3,6.3,78,-99.99,,,-99.99,tws,2013-07-14 13:48:00,
2013-07-14 09:53:00,80.6,74.1,30.32,East,90,3.1,3.1,80,-99.99,,,-99.99,tws,2013-07-14 13:53:00,
2013-07-14 09:58:00,81.1,73.8,30.32,North,360,4.5,4.5,78,-99.99,,,-99.99,tws,2013-07-14 13:58:00,
2013-07-14 10:03:00,82.0,74.4,30.32,ENE,67,4.4,4.4,77,-99.99,,,-99.99,tws,2013-07-14 14:03:00,
2013-07-14 10:08:00,81.5,74.5,30.32,ENE,67,2.2,2.2,78,-99.99,,,-99.99,tws,2013-07-14 14:08:00,
2013-07-14 10:13:00,80.7,73.8,30.32,ENE,67,0.8,0.8,79,-99.99,,,-99.99,tws,2013-07-14 14:13:00,
2013-07-14 10:18:00,83.0,75.8,30.33,NE,45,0.0,0.0,78,-99.99,,,-99.99,tws,2013-07-14 14:18:00,
2013-07-14 10:24:00,81.9,74.9,30.33,SE,135,8.3,8.3,79,-99.99,,,-99.99,tws,2013-07-14 14:24:00,
2013-07-14 10:29:00,82.4,75.3,30.32,NNE,22,1.2,1.2,78,-99.99,,,-99.99,tws,2013-07-14 14:29:00,
2013-07-14 10:34:00,82.8,75.0,30.32,ENE,67,3.8,3.8,77,-99.99,,,-99.99,tws,2013-07-14 14:34:00,
2013-07-14 10:39:00,82.4,74.5,30.32,East,90,0.0,0.0,76,-99.99,,,-99.99,tws,2013-07-14 14:39:00,
2013-07-14 10:44:00,82.2,74.8,30.32,ENE,67,0.0,0.0,78,-99.99,,,-99.99,tws,2013-07-14 14:44:00,
2013-07-14 10:49:00,82.3,74.0,30.32,NW,315,0.0,0.0,75,-99.99,,,-99.99,tws,2013-07-14 14:49:00,
2013-07-14 10:54:00,81.5,74.0,30.32,WNW,292,0.1,0.1,77,-99.99,,,-99.99,tws,2013-07-14 14:54:00,
2013-07-14 10:59:00,84.2,75.3,30.32,West,270,0.0,0.0,74,-99.99,,,-99.99,tws,2013-07-14 14:59:00,
2013-07-14 11:04:00,84.1,74.6,30.32,East,90,0.5,0.5,72,-99.99,,,-99.99,tws,2013-07-14 15:04:00,
2013-07-14 11:09:00,-999.8,-99.9,30.31,SSE,157,1.2,1.2,74,-99.99,,,-99.99,tws,2013-07-14 15:09:00,
2013-07-14 11:14:00,83.6,74.2,30.31,SSE,157,0.1,0.1,73,-99.99,,,-99.99,tws,2013-07-14 15:14:00,
2013-07-14 11:19:00,85.6,74.9,30.31,NE,45,1.1,1.1,70,-99.99,,,-99.99,tws,2013-07-14 15:19:00,
2013-07-14 11:24:00,85.9,76.0,30.31,ESE,112,3.4,3.4,71,-99.99,,,-99.99,tws,2013-07-14 15:24:00,
2013-07-14 11:29:00,84.7,74.6,30.31,NE,45,0.0,0.0,71,-99.99,,,-99.99,tws,2013-07-14 15:29:00,
2013-07-14 11:34:00,83.2,73.6,30.31,East,90,5.0,5.0,72,-99.99,,,-99.99,tws,2013-07-14 15:34:00,
2013-07-14 11:39:00,82.5,73.4,30.31,North,0,0.0,0.0,73,-99.99,,,-99.99,tws,2013-07-14 15:39:00,
2013-07-14 11:44:00,84.2,74.5,30.31,North,0,0.0,0.0,72,-99.99,,,-99.99,tws,2013-07-14 15:44:00,
2013-07-14 11:49:00,83.0,73.4,30.30,NNW,337,0.0,0.0,72,-99.99,,,-99.99,tws,2013-07-14 15:49:00,
2013-07-14 11:54:00,85.0,75.3,30.31,East,90,0.1,0.1,72,-99.99,,,-99.99,tws,2013-07-14 15:54:00,
2013-07-14 11:59:00,85.1,74.4,30.30,North,0,1.2,1.2,69,-99.99,,,-99.99,tws,2013-07-14 15:59:00,
2013-07-14 12:04:00,85.6,74.7,30.30,ESE,112,0.4,0.4,69,-99.99,,,-99.99,tws,2013-07-14 16:04:00,
2013-07-14 12:09:00,84.6,74.9,30.30,SSW,202,0.0,0.0,72,-99.99,,,-99.99,tws,2013-07-14 16:09:00,
2013-07-14 12:14:00,86.5,75.9,30.31,SE,135,0.2,0.2,70,-99.99,,,-99.99,tws,2013-07-14 16:14:00,
2013-07-14 12:19:00,87.3,75.7,30.31,SE,135,0.0,0.0,67,-99.99,,,-99.99,tws,2013-07-14 16:19:00,
2013-07-14 12:25:00,85.8,75.4,30.30,East,90,0.1,0.1,70,-99.99,,,-99.99,tws,2013-07-14 16:25:00,
2013-07-14 12:30:00,86.6,75.2,30.30,SE,135,0.0,0.0,68,-99.99,,,-99.99,tws,2013-07-14 16:30:00,
2013-07-14 12:35:00,84.9,75.2,30.30,NNE,22,0.0,0.0,72,-99.99,,,-99.99,tws,2013-07-14 16:35:00,
2013-07-14 12:41:00,86.0,75.1,30.30,NNE,22,1.1,1.1,69,-99.99,,,-99.99,tws,2013-07-14 16:41:00,
2013-07-14 12:46:00,86.4,74.9,30.29,East,90,0.7,0.7,68,-99.99,,,-99.99,tws,2013-07-14 16:46:00,
2013-07-14 12:51:00,84.8,74.3,30.29,WSW,247,0.3,0.3,70,-99.99,,,-99.99,tws,2013-07-14 16:51:00,
2013-07-14 12:56:00,86.1,75.7,30.29,West,270,0.0,0.0,70,-99.99,,,-99.99,tws,2013-07-14 16:56:00,
2013-07-14 13:01:00,85.0,74.9,30.30,North,0,0.0,0.0,71,-99.99,,,-99.99,tws,2013-07-14 17:01:00,
2013-07-14 13:06:00,87.6,76.7,30.29,East,90,0.0,0.0,69,-99.99,,,-99.99,tws,2013-07-14 17:06:00,
2013-07-14 13:11:00,87.8,76.4,30.29,SE,135,0.4,0.4,68,-99.99,,,-99.99,tws,2013-07-14 17:11:00,
2013-07-14 13:16:00,86.5,75.7,30.29,NNE,22,1.9,1.9,69,-99.99,,,-99.99,tws,2013-07-14 17:16:00,
2013-07-14 13:21:00,85.9,75.6,30.29,NE,45,0.2,0.2,70,-99.99,,,-99.99,tws,2013-07-14 17:21:00,
2013-07-14 13:26:00,84.2,74.6,30.29,West,270,0.1,0.1,72,-99.99,,,-99.99,tws,2013-07-14 17:26:00,
2013-07-14 13:32:00,86.6,75.5,30.29,WNW,292,0.1,0.1,69,-99.99,,,-99.99,tws,2013-07-14 17:32:00,
2013-07-14 13:38:00,86.5,75.0,30.29,SW,225,0.0,0.0,68,-99.99,,,-99.99,tws,2013-07-14 17:38:00,
2013-07-14 13:43:00,84.6,75.2,30.29,WNW,292,0.1,0.1,73,-99.99,,,-99.99,tws,2013-07-14 17:43:00,
2013-07-14 13:48:00,84.3,75.4,30.29,West,270,0.0,0.0,74,-99.99,,,-99.99,tws,2013-07-14 17:48:00,
2013-07-14 13:53:00,88.1,77.2,30.28,NW,315,0.0,0.0,69,-99.99,,,-99.99,tws,2013-07-14 17:53:00,
2013-07-14 13:58:00,89.0,75.7,30.27,WSW,247,0.0,0.0,64,-99.99,,,-99.99,tws,2013-07-14 17:58:00,
2013-07-14 14:03:00,90.1,78.3,30.27,NE,45,0.1,0.1,67,-99.99,,,-99.99,tws,2013-07-14 18:03:00,
2013-07-14 14:08:00,88.2,76.6,30.27,East,90,0.0,0.0,68,-99.99,,,-99.99,tws,2013-07-14 18:08:00,
2013-07-14 14:13:00,87.6,75.5,30.27,ENE,67,0.0,0.0,67,-99.99,,,-99.99,tws,2013-07-14 18:13:00,
2013-07-14 14:18:00,87.4,76.0,30.27,West,270,0.0,0.0,68,-99.99,,,-99.99,tws,2013-07-14 18:18:00,
2013-07-14 14:23:00,88.5,78.2,30.27,West,270,2.0,2.0,71,-99.99,,,-99.99,tws,2013-07-14 18:23:00,
2013-07-14 14:28:00,86.4,75.9,30.27,WSW,247,3.3,3.3,70,-99.99,,,-99.99,tws,2013-07-14 18:28:00,
2013-07-14 14:33:00,85.8,75.3,30.27,West,270,3.4,3.4,70,-99.99,,,-99.99,tws,2013-07-14 18:33:00,
2013-07-14 14:38:00,87.6,76.7,30.27,West,270,6.4,6.4,69,-99.99,,,-99.99,tws,2013-07-14 18:38:00,
2013-07-14 14:43:00,87.3,76.9,30.27,West,270,6.9,6.9,71,-99.99,,,-99.99,tws,2013-07-14 18:43:00,
2013-07-14 14:48:00,87.5,76.5,30.27,WSW,247,7.5,7.5,69,-99.99,,,-99.99,tws,2013-07-14 18:48:00,
2013-07-14 14:53:00,92.0,77.3,30.27,SW,225,0.0,0.0,61,-99.99,,,-99.99,tws,2013-07-14 18:53:00,
2013-07-14 14:59:00,97.1,80.9,30.26,East,90,0.0,0.0,59,-99.99,,,-99.99,tws,2013-07-14 18:59:00,
2013-07-14 15:04:00,91.8,75.9,30.26,South,180,3.4,3.4,59,-99.99,,,-99.99,tws,2013-07-14 19:04:00,
2013-07-14 15:09:00,90.4,74.6,30.26,West,270,1.2,1.2,59,-99.99,,,-99.99,tws,2013-07-14 19:09:00,
2013-07-14 15:14:00,93.5,78.3,30.26,WNW,292,1.0,1.0,60,-99.99,,,-99.99,tws,2013-07-14 19:14:00,
2013-07-14 15:19:00,93.5,78.7,30.26,SSE,157,0.4,0.4,61,-99.99,,,-99.99,tws,2013-07-14 19:19:00,
2013-07-14 15:24:00,91.9,74.6,30.25,WSW,247,4.2,4.2,56,-99.99,,,-99.99,tws,2013-07-14 19:24:00,
2013-07-14 15:29:00,93.5,76.3,30.25,West,270,5.6,5.6,56,-99.99,,,-99.99,tws,2013-07-14 19:29:00,
2013-07-14 15:34:00,93.0,78.2,30.25,South,180,3.9,3.9,61,-99.99,,,-99.99,tws,2013-07-14 19:34:00,
2013-07-14 15:39:00,92.0,75.8,30.25,SSW,202,6.3,6.3,58,-99.99,,,-99.99,tws,2013-07-14 19:39:00,
2013-07-14 15:44:00,94.5,77.7,30.25,South,180,1.0,1.0,57,-99.99,,,-99.99,tws,2013-07-14 19:44:00,
2013-07-14 15:49:00,93.1,76.9,30.25,SSW,202,3.2,3.2,58,-99.99,,,-99.99,tws,2013-07-14 19:49:00,
2013-07-14 15:54:00,97.7,79.3,30.25,SSE,157,3.9,3.9,54,-99.99,,,-99.99,tws,2013-07-14 19:54:00,
2013-07-14 15:59:00,96.3,79.5,30.25,West,270,0.2,0.2,57,-99.99,,,-99.99,tws,2013-07-14 19:59:00,
2013-07-14 16:04:00,95.6,78.9,30.24,SW,225,0.1,0.1,58,-99.99,,,-99.99,tws,2013-07-14 20:04:00,
2013-07-14 16:10:00,95.1,78.5,30.24,SSW,202,3.2,3.2,58,-99.99,,,-99.99,tws,2013-07-14 20:10:00,
2013-07-14 16:15:00,98.7,79.5,30.24,South,180,5.1,5.1,53,-99.99,,,-99.99,tws,2013-07-14 20:15:00,
2013-07-14 16:20:00,100.0,80.6,30.24,South,180,4.3,4.3,53,-99.99,,,-99.99,tws,2013-07-14 20:20:00,
2013-07-14 16:25:00,94.9,79.8,30.23,SSE,157,11.0,11.0,61,-99.99,,,-99.99,tws,2013-07-14 20:25:00,
2013-07-14 16:30:00,94.6,78.0,30.23,SE,135,7.1,7.1,58,-99.99,,,-99.99,tws,2013-07-14 20:30:00,
2013-07-14 16:35:00,94.0,78.5,30.23,South,180,8.5,8.5,60,-99.99,,,-99.99,tws,2013-07-14 20:35:00,
2013-07-14 16:40:00,89.1,76.1,30.23,WSW,247,6.0,6.0,65,-99.99,,,-99.99,tws,2013-07-14 20:40:00,
2013-07-14 16:46:00,87.8,75.6,30.23,West,270,5.6,5.6,66,-99.99,,,-99.99,tws,2013-07-14 20:46:00,
2013-07-14 16:51:00,88.3,76.0,30.23,South,180,0.0,0.0,66,-99.99,,,-99.99,tws,2013-07-14 20:51:00,
2013-07-14 16:56:00,89.0,76.3,30.23,SSW,202,2.3,2.3,65,-99.99,,,-99.99,tws,2013-07-14 20:56:00,
2013-07-14 17:01:00,87.7,75.3,30.23,South,180,4.5,4.5,66,-99.99,,,-99.99,tws,2013-07-14 21:01:00,
2013-07-14 17:06:00,87.6,75.5,30.23,SSW,202,2.7,2.7,66,-99.99,,,-99.99,tws,2013-07-14 21:06:00,
2013-07-14 17:11:00,89.0,77.4,30.23,SSE,157,0.7,0.7,68,-99.99,,,-99.99,tws,2013-07-14 21:11:00,
2013-07-14 17:16:00,85.6,77.0,30.23,WNW,292,5.5,5.5,75,-99.99,,,-99.99,tws,2013-07-14 21:16:00,
2013-07-14 17:21:00,81.6,77.8,30.23,ENE,67,4.5,4.5,87,-99.99,,,-99.99,tws,2013-07-14 21:21:00,
2013-07-14 17:26:00,77.6,73.9,-99.98,NE,45,18.3,18.3,88,-99.99,,,-99.99,tws,2013-07-14 21:26:00,
2013-07-14 17:31:00,78.7,72.3,30.23,East,90,23.9,23.9,80,-99.99,,,-99.99,tws,2013-07-14 21:31:00,
2013-07-14 17:36:00,80.5,74.8,30.23,ESE,112,9.1,9.1,82,-99.99,,,-99.99,tws,2013-07-14 21:36:00,
2013-07-14 17:41:00,81.5,75.5,30.23,SE,135,0.0,0.0,81,-99.99,,,-99.99,tws,2013-07-14 21:41:00,
2013-07-14 17:46:00,80.1,76.1,30.23,NE,45,0.0,0.0,87,-99.99,,,-99.99,tws,2013-07-14 21:46:00,
2013-07-14 17:51:00,79.6,77.2,30.23,North,360,0.0,0.0,92,-99.99,,,-99.99,tws,2013-07-14 21:51:00,
2013-07-14 17:56:00,81.4,78.2,30.23,SE,135,0.0,0.0,89,-99.99,,,-99.99,tws,2013-07-14 21:56:00,
2013-07-14 18:01:00,82.4,77.5,30.23,ESE,112,1.7,1.7,84,-99.99,,,-99.99,tws,2013-07-14 22:01:00,
2013-07-14 18:06:00,83.2,78.2,30.23,SSE,157,4.6,4.6,84,-99.99,,,-99.99,tws,2013-07-14 22:06:00,
2013-07-14 18:11:00,90.0,80.0,30.23,SE,135,2.2,2.2,72,-99.99,,,-99.99,tws,2013-07-14 22:11:00,
2013-07-14 18:17:00,90.2,80.2,30.23,SE,135,7.1,7.1,72,-99.99,,,-99.99,tws,2013-07-14 22:17:00,
2013-07-14 18:22:00,91.7,81.1,30.23,SSE,157,0.4,0.4,70,-99.99,,,-99.99,tws,2013-07-14 22:22:00,
2013-07-14 18:27:00,87.7,79.1,30.23,East,90,0.0,0.0,75,-99.99,,,-99.99,tws,2013-07-14 22:27:00,
2013-07-14 18:49:00,83.2,77.6,30.23,ESE,112,0.0,0.0,82,-99.99,,,-99.99,tws,2013-07-14 22:49:00,
2013-07-14 18:54:00,82.1,77.7,30.23,East,90,0.1,0.1,86,-99.99,,,-99.99,tws,2013-07-14 22:54:00,
2013-07-14 19:00:00,80.7,77.2,30.23,East,90,2.1,2.1,88,-99.99,,,-99.99,tws,2013-07-14 23:00:00,
2013-07-14 19:06:00,80.7,76.4,30.22,East,90,2.7,2.7,86,-99.99,,,-99.99,tws,2013-07-14 23:06:00,
2013-07-14 19:11:00,81.3,77.1,30.22,ENE,67,0.0,0.0,86,-99.99,,,-99.99,tws,2013-07-14 23:11:00,
2013-07-14 19:16:00,81.4,76.8,30.22,SE,135,0.0,0.0,85,-99.99,,,-99.99,tws,2013-07-14 23:16:00,
2013-07-14 19:21:00,81.3,76.9,30.22,SE,135,0.0,0.0,86,-99.99,,,-99.99,tws,2013-07-14 23:21:00,
2013-07-14 19:26:00,80.2,76.5,30.22,ESE,112,0.0,0.0,88,-99.99,,,-99.99,tws,2013-07-14 23:26:00,
2013-07-14 19:31:00,79.5,76.0,30.22,East,90,0.0,0.0,88,-99.99,,,-99.99,tws,2013-07-14 23:31:00,
2013-07-14 19:36:00,80.0,76.6,30.22,NNE,22,0.0,0.0,89,-99.99,,,-99.99,tws,2013-07-14 23:36:00,
2013-07-14 19:41:00,80.1,76.2,30.22,NNE,22,0.9,0.9,87,-99.99,,,-99.99,tws,2013-07-14 23:41:00,
2013-07-14 19:46:00,82.5,76.9,30.22,North,360,0.0,0.0,82,-99.99,,,-99.99,tws,2013-07-14 23:46:00,
2013-07-14 19:51:00,82.8,77.3,30.22,ESE,112,0.4,0.4,83,-99.99,,,-99.99,tws,2013-07-14 23:51:00,
2013-07-14 20:22:00,77.7,75.5,30.23,East,90,0.0,0.0,92,-99.99,,,-99.99,tws,2013-07-15 00:22:00,
2013-07-14 20:28:00,78.7,76.0,30.23,East,90,0.0,0.0,91,-99.99,,,-99.99,tws,2013-07-15 00:28:00,
2013-07-14 20:33:00,79.2,76.1,30.23,SE,135,0.0,0.0,90,-99.99,,,-99.99,tws,2013-07-15 00:33:00,
2013-07-14 20:38:00,78.7,75.8,30.23,SE,135,0.0,0.0,90,-99.99,,,-99.99,tws,2013-07-15 00:38:00,
2013-07-14 20:43:00,78.6,75.7,30.23,SSE,157,0.0,0.0,90,-99.99,,,-99.99,tws,2013-07-15 00:43:00,
2013-07-14 20:48:00,77.8,76.0,30.23,SSE,157,0.0,0.0,94,-99.99,,,-99.99,tws,2013-07-15 00:48:00,
2013-07-14 20:53:00,78.2,75.9,30.23,SE,135,0.0,0.0,92,-99.99,,,-99.99,tws,2013-07-15 00:53:00,
2013-07-14 20:58:00,77.7,75.4,30.23,SE,135,4.1,4.1,92,-99.99,,,-99.99,tws,2013-07-15 00:58:00,
2013-07-14 21:03:00,77.8,75.7,30.23,SE,135,0.0,0.0,93,-99.99,,,-99.99,tws,2013-07-15 01:03:00,
2013-07-14 21:08:00,77.9,75.4,30.23,SE,135,0.0,0.0,91,-99.99,,,-99.99,tws,2013-07-15 01:08:00,
2013-07-14 21:13:00,77.7,75.6,30.23,SE,135,0.0,0.0,93,-99.99,,,-99.99,tws,2013-07-15 01:13:00,
2013-07-14 21:18:00,77.1,75.6,30.23,ESE,112,0.0,0.0,94,-99.99,,,-99.99,tws,2013-07-15 01:18:00,
2013-07-14 21:23:00,75.9,75.1,30.23,NNE,22,0.0,0.0,97,-99.99,,,-99.99,tws,2013-07-15 01:23:00,
2013-07-14 21:28:00,76.5,75.3,30.23,ENE,67,0.0,0.0,96,-99.99,,,-99.99,tws,2013-07-15 01:28:00,
2013-07-14 21:34:00,75.8,74.9,30.23,North,0,0.0,0.0,97,-99.99,,,-99.99,tws,2013-07-15 01:34:00,
2013-07-14 21:39:00,76.7,75.5,30.23,East,90,0.0,0.0,95,-99.99,,,-99.99,tws,2013-07-15 01:39:00,
2013-07-14 21:44:00,76.7,75.2,30.23,East,90,0.0,0.0,95,-99.99,,,-99.99,tws,2013-07-15 01:44:00,
2013-07-14 21:49:00,76.2,75.1,30.23,East,90,0.0,0.0,96,-99.99,,,-99.99,tws,2013-07-15 01:49:00,
2013-07-14 21:54:00,76.5,75.4,30.24,East,90,0.0,0.0,96,-99.99,,,-99.99,tws,2013-07-15 01:54:00,
2013-07-14 21:59:00,75.8,74.9,30.23,SW,225,0.0,0.0,96,-99.99,,,-99.99,tws,2013-07-15 01:59:00,
2013-07-14 22:04:00,75.0,74.5,30.23,SW,225,0.0,0.0,98,-99.99,,,-99.99,tws,2013-07-15 02:04:00,
2013-07-14 22:09:00,75.3,74.9,30.23,SW,225,0.0,0.0,98,-99.99,,,-99.99,tws,2013-07-15 02:09:00,
2013-07-14 22:14:00,75.7,74.8,30.23,SW,225,0.0,0.0,97,-99.99,,,-99.99,tws,2013-07-15 02:14:00,
2013-07-14 22:20:00,75.6,74.7,30.23,SW,225,0.0,0.0,97,-99.99,,,-99.99,tws,2013-07-15 02:20:00,
2013-07-14 22:25:00,75.1,74.6,30.23,SW,225,0.0,0.0,98,-99.99,,,-99.99,tws,2013-07-15 02:25:00,
2013-07-14 22:30:00,75.0,74.6,30.23,SW,225,0.0,0.0,98,-99.99,,,-99.99,tws,2013-07-15 02:30:00,
2013-07-14 22:35:00,75.3,74.5,30.23,SW,225,0.0,0.0,97,-99.99,,,-99.99,tws,2013-07-15 02:35:00,
2013-07-14 22:40:00,74.6,74.2,30.23,SE,135,0.0,0.0,98,-99.99,,,-99.99,tws,2013-07-15 02:40:00,
2013-07-14 22:45:00,75.1,74.5,30.23,SE,135,3.1,3.1,97,-99.99,,,-99.99,tws,2013-07-15 02:45:00,
2013-07-14 22:50:00,75.0,74.4,30.23,SSE,157,0.0,0.0,98,-99.99,,,-99.99,tws,2013-07-15 02:50:00,
2013-07-14 22:55:00,74.7,74.3,30.23,ESE,112,0.0,0.0,98,-99.99,,,-99.99,tws,2013-07-15 02:55:00,
2013-07-14 23:00:00,74.7,74.2,30.23,ESE,112,4.4,4.4,98,-99.99,,,-99.99,tws,2013-07-15 03:00:00,
2013-07-14 23:05:00,73.4,73.5,30.23,NW,315,0.0,0.0,100,-99.99,,,-99.99,tws,2013-07-15 03:05:00,
2013-07-14 23:10:00,74.6,74.3,30.23,SE,135,0.0,0.0,99,-99.99,,,-99.99,tws,2013-07-15 03:10:00,
2013-07-14 23:15:00,73.8,73.6,30.23,SSE,157,0.0,0.0,99,-99.99,,,-99.99,tws,2013-07-15 03:15:00,
2013-07-14 23:20:00,74.0,73.7,30.23,NE,45,0.0,0.0,99,-99.99,,,-99.99,tws,2013-07-15 03:20:00,
2013-07-14 23:26:00,72.9,73.1,30.23,NW,315,0.0,0.0,100,-99.99,,,-99.99,tws,2013-07-15 03:26:00,
2013-07-14 23:31:00,73.8,73.6,30.23,NW,315,0.0,0.0,99,-99.99,,,-99.99,tws,2013-07-15 03:31:00,
2013-07-14 23:36:00,74.0,73.8,30.23,South,180,0.0,0.0,99,-99.99,,,-99.99,tws,2013-07-15 03:36:00,
2013-07-14 23:41:00,74.4,74.2,30.23,SSE,157,0.0,0.0,99,-99.99,,,-99.99,tws,2013-07-15 03:41:00,
2013-07-14 23:46:00,74.3,74.0,30.23,ESE,112,0.0,0.0,98,-99.99,,,-99.99,tws,2013-07-15 03:46:00,
2013-07-14 23:51:00,74.1,74.0,30.23,ESE,112,0.0,0.0,99,-99.99,,,-99.99,tws,2013-07-15 03:51:00,
2013-07-14 23:56:00,74.2,73.9,30.23,ESE,112,0.0,0.0,98,-99.99,,,-99.99,tws,2013-07-15 03:56:00,